KB6CYS Weather Reports


Display with metric or nautical units.
time (UTC)temp
F
wind
direction
speed
MPH
gust
MPH
rain 1hr
in
rain 24hr
in
rain mn
in
humidity
%
barometer
mb
20260902191503 76 313 2.0 10.0 0.00 0.00 0.00 1015.3
20260902191003 76 248 6.0 10.0 0.00 0.00 0.00 1014.6
20260902190503 75 255 6.0 9.0 0.00 0.00 0.00 1015.3
20260902190002 75 281 6.0 9.0 0.00 0.00 0.00 1014.9
20260902185524 76 212 4.0 9.0 0.00 0.00 0.00 1014.9
20260902185003 76 271 4.0 9.0 0.00 0.00 0.00 1015.6
20260902184502 75 207 2.0 10.0 0.00 0.00 0.00 1015.3
20260902184004 75 246 6.0 11.0 0.00 0.00 0.00 1014.9
20260902183503 74 272 6.0 11.0 0.00 0.00 0.00 1014.9
20260902183002 75 211 4.0 12.0 0.00 0.00 0.00 1014.9
20260902182502 75 219 6.0 12.0 0.00 0.00 0.00 1014.9
20260902182002 75 219 5.0 11.0 0.00 0.00 0.00 1014.9
20260902181502 75 224 5.0 11.0 0.00 0.00 0.00 1015.3
20260902181003 75 197 4.0 8.0 0.00 0.00 0.00 1016.0
20260902180502 74 9 1.0 6.0 0.00 0.00 0.00 1016.0
20260902180005 74 232 3.0 10.0 0.00 0.00 0.00 1016.3
20260902175502 74 227 6.0 10.0 0.00 0.00 0.00 1016.0
20260902175003 73 38 1.0 10.0 0.00 0.00 0.00 1016.0
20260902174503 73 274 3.0 10.0 0.00 0.00 0.00 1015.6
20260902174002 73 232 1.0 10.0 0.00 0.00 0.00 1015.3
20260902173503 73 193 4.0 10.0 0.00 0.00 0.00 1014.9
20260902173004 72 203 4.0 9.0 0.00 0.00 0.00 1014.6
20260902172502 72 275 3.0 8.0 0.00 0.00 0.00 1015.3
20260902172025 73 230 1.0 7.0 0.00 0.00 0.00 1015.3
20260902171503 73 218 2.0 7.0 0.00 0.00 0.00 1015.6
20260902171003 72 133 2.0 7.0 0.00 0.00 0.00 1014.9
20260902170503 71 228 3.0 6.0 0.00 0.00 0.00 1014.9
20260902170025 71 214 3.0 7.0 0.00 0.00 0.00 1015.6
20260902165502 71 212 4.0 7.0 0.00 0.00 0.00 1014.9
20260902165004 71 237 4.0 7.0 0.00 0.00 0.00 1014.6
20260902164502 70 273 2.0 7.0 0.00 0.00 0.00 1014.9
20260902164003 70 244 3.0 5.0 0.00 0.00 0.00 1014.9
20260902163503 70 222 2.0 5.0 0.00 0.00 0.00 1015.3
20260902163002 69 215 3.0 5.0 0.00 0.00 0.00 1015.3
20260902162503 69 198 2.0 5.0 0.00 0.00 0.00 1014.9
20260902162024 69 186 1.0 6.0 0.00 0.00 0.00 1014.9
20260902161503 68 215 3.0 7.0 0.00 0.00 0.00 1014.9
20260902161003 68 245 4.0 7.0 0.00 0.00 0.00 1015.3
20260902160504 69 302 1.0 5.0 0.00 0.00 0.00 1015.3
20260902160002 68 178 3.0 5.0 0.00 0.00 0.00 1014.9
20260902155524 68 218 3.0 5.0 0.00 0.00 0.00 1014.6
20260902155003 68 85 1.0 6.0 0.00 0.00 0.00 1014.6
20260902154502 68 200 2.0 6.0 0.00 0.00 0.00 1014.6
20260902154003 67 197 3.0 5.0 0.00 0.00 0.00 1014.6
20260902153504 67 170 3.0 5.0 0.00 0.00 0.00 1014.9
20260902153002 67 99 2.0 5.0 0.00 0.00 0.00 1014.6
20260902152502 67 167 3.0 5.0 0.00 0.00 0.00 1014.9
20260902152003 66 86 2.0 5.0 0.00 0.00 0.00 1014.6
20260902151502 66 110 2.0 7.0 0.00 0.00 0.00 1014.6
20260902151002 65 165 3.0 7.0 0.00 0.00 0.00 1014.9
20260902150502 65 150 2.0 4.0 0.00 0.00 0.00 1014.9
20260902150003 64 163 2.0 3.0 0.00 0.00 0.00 1014.6
20260902145524 64 182 1.0 3.0 0.00 0.00 0.00 1014.6
20260902145003 64 234 1.0 3.0 0.00 0.00 0.00 1014.6
20260902144502 64 216 1.0 3.0 0.00 0.00 0.00 1014.6
20260902144003 63 104 1.0 3.0 0.00 0.00 0.00 1014.9
20260902143503 63 106 1.0 3.0 0.00 0.00 0.00 1014.9
20260902143002 63 102 1.0 4.0 0.00 0.00 0.00 1015.3
20260902142503 63 77 2.0 4.0 0.00 0.00 0.00 1015.3
20260902142003 63 96 2.0 4.0 0.00 0.00 0.00 1014.9
20260902141503 63 89 1.0 3.0 0.00 0.00 0.00 1014.9
20260902141003 62 88 1.0 3.0 0.00 0.00 0.00 1015.3
20260902140503 62 89 1.0 2.0 0.00 0.00 0.00 1015.3
20260902140003 62 49 0.0 2.0 0.00 0.00 0.00 1014.9
20260902135524 62 68 1.0 2.0 0.00 0.00 0.00 1014.9
20260902135004 62 68 1.0 1.0 0.00 0.00 0.00 1014.3
20260902134524 62 68 1.0 2.0 0.00 0.00 0.00 1014.6
20260902134002 62 66 1.0 3.0 0.00 0.00 0.00 1014.3
20260902133524 62 76 2.0 3.0 0.00 0.00 0.00 1014.6
20260902133003 62 62 1.0 4.0 0.00 0.00 0.00 1014.6
20260902132503 62 44 2.0 4.0 0.00 0.00 0.00 1014.6
20260902132002 62 51 2.0 3.0 0.00 0.00 0.00 1015.3
20260902131502 62 50 2.0 3.0 0.00 0.00 0.00 1014.9
20260902131003 62 42 1.0 3.0 0.00 0.00 0.00 1014.6
20260902130502 62 63 2.0 3.0 0.00 0.00 0.00 1014.6
20260902130003 62 60 1.0 3.0 0.00 0.00 0.00 1014.6
20260902125503 62 52 2.0 3.0 0.00 0.00 0.00 1014.3
20260902125002 62 42 2.0 3.0 0.00 0.00 0.00 1014.3
20260902124524 63 34 2.0 3.0 0.00 0.00 0.00 1014.6
20260902124002 63 33 2.0 3.0 0.00 0.00 0.00 1014.6
20260902123503 63 49 1.0 3.0 0.00 0.00 0.00 1014.6
20260902123003 63 21 1.0 2.0 0.00 0.00 0.00 1014.3
20260902122502 63 30 1.0 3.0 0.00 0.00 0.00 1014.3
20260902122004 63 0 1.0 3.0 0.00 0.00 0.00 1014.3
20260902121503 63 38 1.0 2.0 0.00 0.00 0.00 1014.6
20260902121002 63 68 1.0 2.0 0.00 0.00 0.00 1014.3
20260902120502 63 90 0.0 3.0 0.00 0.00 0.00 1014.6
20260902120002 63 49 2.0 3.0 0.00 0.00 0.00 1014.3
20260902115504 63 43 1.0 3.0 0.00 0.00 0.00 1014.3
20260902115002 63 33 1.0 3.0 0.00 0.00 0.00 1014.6
20260902114504 63 42 2.0 3.0 0.00 0.00 0.00 1014.3
20260902114003 63 10 2.0 3.0 0.00 0.00 0.00 1014.3
20260902113502 64 23 1.0 2.0 0.00 0.00 0.00 1014.9
20260902113004 64 16 1.0 2.0 0.00 0.00 0.00 1014.6
20260902112504 64 43 2.0 2.0 0.00 0.00 0.00 1014.6
20260902112003 64 43 1.0 3.0 0.00 0.00 0.00 1014.6
20260902111504 64 58 1.0 3.0 0.00 0.00 0.00 1014.6
20260902111002 64 47 2.0 3.0 0.00 0.00 0.00 1014.6
20260902110503 64 59 2.0 3.0 0.00 0.00 0.00 1014.6
20260902110026 64 18 2.0 3.0 0.00 0.00 0.00 1014.6
20260902105502 64 314 1.0 2.0 0.00 0.00 0.00 1014.6
20260902105003 64 314 2.0 2.0 0.00 0.00 0.00 1014.9
20260902104503 64 314 0.0 2.0 0.00 0.00 0.00 1014.9
20260902104025 64 314 1.0 3.0 0.00 0.00 0.00 1014.6
20260902103503 64 314 1.0 3.0 0.00 0.00 0.00 1014.9
20260902103003 64 314 1.0 2.0 0.00 0.00 0.00 1014.9
20260902102524 64 314 1.0 2.0 0.00 0.00 0.00 1014.6
20260902102002 64 314 1.0 2.0 0.00 0.00 0.00 1014.9
20260902101524 64 315 0.0 1.0 0.00 0.00 0.00 1015.3
20260902101003 64 315 0.0 1.0 0.00 0.00 0.00 1015.6
20260902100502 64 314 1.0 1.0 0.00 0.00 0.00 1014.9
20260902100003 64 315 0.0 0.0 0.00 0.00 0.00 1015.3
20260902095503 64 23 0.0 1.0 0.00 0.00 0.00 1014.9
20260902095005 64 23 0.0 2.0 0.00 0.00 0.00 1015.3
20260902094502 64 23 1.0 2.0 0.00 0.00 0.00 1014.9
20260902094002 64 23 1.0 2.0 0.00 0.00 0.00 1015.3
20260902093503 64 23 1.0 2.0 0.00 0.00 0.00 1014.9
20260902093025 64 35 1.0 2.0 0.00 0.00 0.00 1014.9
20260902092503 64 45 1.0 2.0 0.00 0.00 0.00 1014.9
20260902092003 65 273 1.0 2.0 0.00 0.00 0.00 1014.9
20260902091503 65 247 0.0 1.0 0.00 0.00 0.00 1014.9
20260902091004 65 248 0.0 0.0 0.00 0.00 0.00 1014.9
20260902090524 65 248 0.0 1.0 0.00 0.00 0.00 1015.3
20260902090003 65 247 1.0 1.0 0.00 0.00 0.00 1015.3
20260902085503 65 248 0.0 0.0 0.00 0.00 0.00 1014.9
20260902085024 65 248 0.0 0.0 0.00 0.00 0.00 1014.9
20260902084503 65 248 0.0 0.0 0.00 0.00 0.00 1015.6
20260902084003 65 248 0.0 0.0 0.00 0.00 0.00 1015.6
20260902083504 65 248 0.0 1.0 0.00 0.00 0.00 1015.3
20260902083003 65 247 0.0 1.0 0.00 0.00 0.00 1015.6
20260902082503 65 247 1.0 1.0 0.00 0.00 0.00 1014.9
20260902082002 66 248 0.0 3.0 0.00 0.00 0.00 1015.6
20260902081503 66 247 0.0 3.0 0.00 0.00 0.00 1015.3
20260902081002 66 248 0.0 0.0 0.00 0.00 0.00 1015.6
20260902080524 66 248 0.0 0.0 0.00 0.00 0.00 1015.3
20260902080003 66 248 0.0 0.0 0.00 0.00 0.00 1014.9
20260902075524 66 248 0.0 0.0 0.00 0.00 0.00 1015.3
20260902075002 66 248 0.0 0.0 0.00 0.00 0.00 1015.3
20260902074525 66 248 0.0 1.0 0.00 0.00 0.00 1014.9
20260902074003 66 248 0.0 1.0 0.00 0.00 0.00 1015.3
20260902073524 66 247 1.0 1.0 0.00 0.00 0.00 1015.3
20260902073004 66 247 1.0 1.0 0.00 0.00 0.00 1014.6
20260902072504 67 248 0.0 1.0 0.00 0.00 0.00 1014.3
20260902072003 67 247 1.0 1.0 0.00 0.00 0.00 1014.6
20260902071503 67 247 1.0 1.0 0.00 0.00 0.00 1014.9
20260902071003 67 248 0.0 0.0 0.00 0.00 0.00 1014.6
20260902070503 67 293 0.0 2.0 0.00 0.00 0.00 1014.6
20260902070004 67 292 1.0 2.0 0.00 0.00 0.00 1014.6
20260902065503 67 292 1.0 2.0 0.00 0.00 0.00 1014.3
20260902065002 67 280 1.0 2.0 0.00 0.00 0.00 1014.3
20260902064524 67 292 1.0 2.0 0.00 0.00 0.00 1014.6
20260902064003 67 282 1.0 2.0 0.00 0.00 0.00 1014.3
20260902063504 67 275 1.0 2.0 0.00 0.00 0.00 1014.6
20260902063024 67 280 1.0 2.0 0.00 0.00 0.00 1014.6
20260902062503 67 277 0.0 2.0 0.00 0.00 0.00 1014.9
20260902062003 67 300 1.0 3.0 0.00 0.00 0.00 1014.3
20260902061503 67 286 1.0 3.0 0.00 0.00 0.00 1014.6
20260902061003 68 307 2.0 2.0 0.00 0.00 0.00 1014.6
20260902060503 68 281 0.0 2.0 0.00 0.00 0.00 1014.6
20260902060003 68 260 1.0 2.0 0.00 0.00 0.00 1014.3
20260902055503 68 282 1.0 3.0 0.00 0.00 0.00 1014.3
20260902055003 67 274 2.0 3.0 0.00 0.00 0.00 1014.3
20260902054502 68 303 1.0 3.0 0.00 0.00 0.00 1014.3
20260902054004 68 307 1.0 3.0 0.00 0.00 0.00 1013.6
20260902053502 68 290 2.0 5.0 0.00 0.00 0.00 1013.6
20260902053024 68 287 3.0 5.0 0.00 0.00 0.00 1013.6
20260902052525 68 288 3.0 5.0 0.00 0.00 0.00 1013.6
20260902052003 68 307 3.0 5.0 0.00 0.00 0.00 1013.6
20260902051503 68 291 3.0 5.0 0.00 0.00 0.00 1013.6
20260902051003 68 286 2.0 6.0 0.00 0.00 0.00 1013.9
20260902050504 68 275 3.0 6.0 0.00 0.00 0.00 1013.6
20260902050004 68 261 3.0 5.0 0.00 0.00 0.00 1013.9
20260902045503 68 280 3.0 5.0 0.00 0.00 0.00 1013.9
20260902045002 68 254 3.0 7.0 0.00 0.00 0.00 1013.2
20260902044502 68 286 3.0 7.0 0.00 0.00 0.00 1013.6
20260902044001 68 273 4.0 7.0 0.00 0.00 0.00 1013.6
20260902043504 68 277 5.0 7.0 0.00 0.00 0.00 1013.9
20260902043003 68 282 3.0 6.0 0.00 0.00 0.00 1013.9
20260902042523 68 283 3.0 7.0 0.00 0.00 0.00 1014.3
20260902042002 68 278 4.0 7.0 0.00 0.00 0.00 1013.6
20260902041502 68 294 4.0 7.0 0.00 0.00 0.00 1013.2
20260902041002 69 281 3.0 7.0 0.00 0.00 0.00 1013.6
20260902040523 69 283 4.0 5.0 0.00 0.00 0.00 1013.6
20260902040004 69 298 2.0 5.0 0.00 0.00 0.00 1012.2
20260902035501 69 266 4.0 5.0 0.00 0.00 0.00 1012.6
20260902035024 69 277 3.0 9.0 0.00 0.00 0.00 1012.9
20260902034501 69 278 5.0 9.0 0.00 0.00 0.00 1012.6
20260902034003 69 297 5.0 9.0 0.00 0.00 0.00 1012.9
20260902033502 69 280 5.0 9.0 0.00 0.00 0.00 1012.2
20260902033001 69 284 5.0 9.0 0.00 0.00 0.00 1012.6
20260902032503 70 285 5.0 9.0 0.00 0.00 0.00 1012.6
20260902032002 70 287 3.0 9.0 0.00 0.00 0.00 1012.2
20260902031502 70 299 5.0 9.0 0.00 0.00 0.00 1012.2
20260902031002 70 287 4.0 9.0 0.00 0.00 0.00 1012.6
20260902030502 70 287 4.0 9.0 0.00 0.00 0.00 1012.6
20260902030023 71 278 5.0 9.0 0.00 0.00 0.00 1012.6
20260902025502 71 281 4.0 7.0 0.00 0.00 0.00 1012.6
20260902025002 71 285 4.0 7.0 0.00 0.00 0.00 1011.9
20260902024524 72 288 4.0 7.0 0.00 0.00 0.00 1011.9
20260902024002 72 288 5.0 7.0 0.00 0.00 0.00 1011.5
20260902023502 72 280 3.0 8.0 0.00 0.00 0.00 1011.9
20260902023024 72 255 5.0 9.0 0.00 0.00 0.00 1011.5
20260902022501 72 256 6.0 9.0 0.00 0.00 0.00 1011.5
20260902022024 73 251 6.0 9.0 0.00 0.00 0.00 1011.9
20260902021502 73 256 6.0 10.0 0.00 0.00 0.00 1012.2
20260902021002 73 243 4.0 10.0 0.00 0.00 0.00 1011.9
20260902020524 74 273 6.0 9.0 0.00 0.00 0.00 1012.6
20260902020001 74 273 5.0 11.0 0.00 0.00 0.00 1011.5
20260902015502 75 256 6.0 11.0 0.00 0.00 0.00 1012.2
20260902015002 75 274 5.0 10.0 0.00 0.00 0.00 1012.2
20260902014502 75 293 5.0 10.0 0.00 0.00 0.00 1011.9
20260902014002 76 290 4.0 12.0 0.00 0.00 0.00 1012.2
20260902013502 76 278 6.0 12.0 0.00 0.00 0.00 1012.2
20260902013002 76 276 7.0 12.0 0.00 0.00 0.00 1011.9
20260902012523 77 280 6.0 12.0 0.00 0.00 0.00 1012.2
20260902012002 78 268 6.0 12.0 0.00 0.00 0.00 1012.6
20260902011523 78 267 4.0 10.0 0.00 0.00 0.00 1012.2
20260902011002 78 264 5.0 10.0 0.00 0.00 0.00 1011.9
20260902010523 78 283 4.0 10.0 0.00 0.00 0.00 1011.9
20260902010002 79 264 6.0 10.0 0.00 0.00 0.00 1012.2
20260902005503 79 279 6.0 10.0 0.00 0.00 0.00 1012.2
20260902005002 79 251 6.0 10.0 0.00 0.00 0.00 1012.2
20260902004502 79 279 6.0 10.0 0.00 0.00 0.00 1012.6
20260902004002 79 267 7.0 11.0 0.00 0.00 0.00 1012.9
20260902003502 79 285 6.0 12.0 0.00 0.00 0.00 1012.2
20260902003002 80 262 7.0 12.0 0.00 0.00 0.00 1012.6
20260902002502 80 261 7.0 13.0 0.00 0.00 0.00 1012.6
20260902002003 81 248 7.0 13.0 0.00 0.00 0.00 1012.6
20260902001525 80 276 8.0 13.0 0.00 0.00 0.00 1012.6
20260902001003 81 276 6.0 13.0 0.00 0.00 0.00 1012.2
20260902000503 81 299 6.0 13.0 0.00 0.00 0.00 1011.9
20260902000003 83 253 6.0 13.0 0.00 0.00 0.00 1011.5
20260901235502 83 280 4.0 10.0 0.00 0.00 0.00 1011.5
20260901235002 84 252 4.0 12.0 0.00 0.00 0.00 1011.5
20260901234501 84 230 5.0 12.0 0.00 0.00 0.00 1012.2
20260901234003 85 185 6.0 14.0 0.00 0.00 0.00 1011.9
20260901233503 85 203 5.0 14.0 0.00 0.00 0.00 1012.2
20260901233002 85 179 6.0 11.0 0.00 0.00 0.00 1011.9
20260901232523 85 193 5.0 12.0 0.00 0.00 0.00 1012.6
20260901232001 85 175 5.0 12.0 0.00 0.00 0.00 1012.9
20260901231502 84 224 5.0 10.0 0.00 0.00 0.00 1012.2
20260901231023 84 205 5.0 9.0 0.00 0.00 0.00 1012.2
20260901230502 84 210 5.0 10.0 0.00 0.00 0.00 1012.2
20260901230002 84 227 6.0 10.0 0.00 0.00 0.00 1012.2
20260901225502 85 224 4.0 10.0 0.00 0.00 0.00 1012.6
20260901225023 85 195 4.0 10.0 0.00 0.00 0.00 1012.6
20260901224523 85 199 5.0 10.0 0.00 0.00 0.00 1012.9
20260901224002 85 191 5.0 9.0 0.00 0.00 0.00 1013.2
20260901223503 84 196 4.0 11.0 0.00 0.00 0.00 1013.2
20260901223003 83 220 7.0 11.0 0.00 0.00 0.00 1013.6
20260901222502 83 212 6.0 12.0 0.00 0.00 0.00 1012.9
20260901222002 83 195 6.0 14.0 0.00 0.00 0.00 1012.9
20260901221503 82 194 5.0 14.0 0.00 0.00 0.00 1013.2
20260901221002 83 199 6.0 12.0 0.00 0.00 0.00 1013.2
20260901220523 82 202 7.0 12.0 0.00 0.00 0.00 1013.6
20260901220002 82 197 7.0 12.0 0.00 0.00 0.00 1013.6
20260901215501 82 213 6.0 12.0 0.00 0.00 0.00 1013.9
20260901215002 82 216 7.0 12.0 0.00 0.00 0.00 1013.2
20260901214502 82 197 7.0 13.0 0.00 0.00 0.00 1013.6
20260901214002 82 213 6.0 14.0 0.00 0.00 0.00 1013.2
20260901213523 82 220 7.0 14.0 0.00 0.00 0.00 1013.9
20260901213002 82 216 7.0 12.0 0.00 0.00 0.00 1013.6
20260901212502 82 201 6.0 13.0 0.00 0.00 0.00 1013.9
20260901212001 82 211 7.0 13.0 0.00 0.00 0.00 1013.6
20260901211502 81 227 6.0 14.0 0.00 0.00 0.00 1013.6
20260901211001 81 206 6.0 14.0 0.00 0.00 0.00 1013.6
20260901210502 81 208 6.0 12.0 0.00 0.00 0.00 1013.6
20260901210002 81 210 6.0 10.0 0.00 0.00 0.00 1013.6
20260901205502 81 174 6.0 10.0 0.00 0.00 0.00 1013.6
20260901205002 81 211 6.0 10.0 0.00 0.00 0.00 1013.9
20260901204504 81 180 5.0 12.0 0.00 0.00 0.00 1014.3
20260901204002 80 223 7.0 12.0 0.00 0.00 0.00 1014.6
20260901203502 80 245 8.0 12.0 0.00 0.00 0.00 1014.3
20260901203001 81 207 6.0 13.0 0.00 0.00 0.00 1014.3
20260901202502 80 218 5.0 13.0 0.00 0.00 0.00 1014.3
20260901202001 79 223 6.0 12.0 0.00 0.00 0.00 1014.6
20260901201503 80 228 7.0 11.0 0.00 0.00 0.00 1013.9
20260901201002 81 198 6.0 11.0 0.00 0.00 0.00 1014.3
20260901200502 80 202 6.0 11.0 0.00 0.00 0.00 1014.3
20260901200002 80 194 6.0 13.0 0.00 0.00 0.00 1013.9
20260901195502 80 239 6.0 13.0 0.00 0.00 0.00 1013.9
20260901195023 80 224 5.0 12.0 0.00 0.00 0.00 1013.9
20260901194523 79 211 5.0 12.0 0.00 0.00 0.00 1013.9
20260901194002 79 206 4.0 12.0 0.00 0.00 0.00 1013.9
20260901193502 79 240 8.0 12.0 0.00 0.00 0.00 1014.3
20260901193003 78 230 5.0 12.0 0.00 0.00 0.00 1013.9
20260901192502 78 213 5.0 14.0 0.00 0.00 0.00 1014.3
20260901192002 77 233 9.0 14.0 0.00 0.00 0.00 1014.9